This demonstration page uses our WeatherBlox Daily Observations layout. Learn more.

Left ArrowRight Arrow

38.88101, -77.10428

Hourly Observations for May 28, 2021

Temp ( °F °C ) Dew Point ( °F °C ) Humidity (%) Winds ( mph kmh ) Pressure ( in mb ) Visibility ( mi km ) Precip ( " mm )
12:52 am 00:52 Mostly Cloudy 74 23.3 57 13.9 56 56 ENE 5 7 30.01 1016 10 16 N/A
1:52 am 01:52 Cloudy 72 22.2 54 12.2 53 53 NNW 6 9 30.01 1016 10 16 N/A
2:52 am 02:52 Mostly Cloudy 72 22.2 56 13.3 57 57 NNE 7 11 29.98 1015 10 16 N/A
3:52 am 03:52 Mostly Cloudy 71 21.7 52 11.1 51 51 NNE 12 19 29.98 1015 10 16 N/A
4:52 am 04:52 Cloudy 69 20.6 55 12.8 61 61 NE 13 20 29.98 1015 10 16 N/A
5:52 am 05:52 Mostly Cloudy 68 20 54 12.2 61 61 NE 10 17 29.98 1015 10 16 N/A
6:52 am 06:52 Mostly Cloudy 67 19.4 52 11.1 59 59 NE 10 17 29.97 1015 10 16 N/A
7:52 am 07:52 Mostly Cloudy 68 20 53 11.7 59 59 NE 10 17 29.96 1015 10 16 N/A
8:52 am 08:52 Mostly Cloudy 71 21.7 55 12.8 57 57 ENE 9 15 29.96 1015 10 16 N/A
9:52 am 09:52 Partly Cloudy 73 22.8 57 13.9 57 57 ENE 9 15 29.95 1014 10 16 N/A
10:52 am 10:52 Mostly Cloudy 75 23.9 58 14.4 55 55 E 10 17 29.93 1013 10 16 N/A
11:52 am 11:52 Cloudy 73 22.8 59 15 62 62 SE 13 20 29.91 1013 10 16 N/A
12:52 pm 12:52 Cloudy with Light Rain 73 22.8 59 15 62 62 E 13 20 29.89 1012 10 16 0.00 0.00
1:52 pm 13:52 Cloudy with Light Rain 73 22.8 60 15.6 64 64 ENE 8 13 29.86 1011 10 16 0.00 0.00
2:09 pm 14:09 Cloudy 73 22.8 60 15.6 64 64 ENE 9 15 29.85 1011 10 16 0.00 0.00
2:52 pm 14:52 Cloudy with Light Rain 73 22.8 62 16.7 69 69 ENE 14 22 29.81 1010 10 16 0.00 0.00
3:03 pm 15:03 Cloudy 73 22.8 61 16.1 66 66 E 10 17 29.81 1009 10 16 0.00 0.00
3:27 pm 15:27 Cloudy 73 22.8 62 16.7 69 69 NE 5 7 29.80 1009 10 16 0.00 0.00
3:48 pm 15:48 Cloudy 75 24 63 17 65 65 ENE 13 20 29.79 1009 10 16 0.00 0.00
3:52 pm 15:52 Cloudy 75 23.9 63 17.2 66 66 NE 14 22 29.79 1009 10 16 0.00 0.00
4:52 pm 16:52 Cloudy 73 22.8 62 16.7 69 69 E 12 19 29.76 1008 10 16 N/A
5:06 pm 17:06 Cloudy 73 22.8 62 16.7 69 69 ENE 14 22 29.76 1008 10 16 N/A
5:24 pm 17:24 Cloudy 72 22.2 62 16.7 71 71 NE 15 24 29.75 1007 10 16 N/A
5:32 pm 17:32 Cloudy 72 22.2 62 16.7 71 71 NE 14 22 29.75 1007 10 16 N/A
5:41 pm 17:41 Cloudy 72 22.2 62 16.7 71 71 NE 14 22 29.75 1007 10 16 N/A
5:52 pm 17:52 Cloudy 71 21.7 62 16.7 73 73 NE 14 22 29.74 1007 10 16 N/A
6:34 pm 18:34 Cloudy 70 21.1 61 16.1 73 73 NE 15 24 29.72 1006 10 16 N/A
6:44 pm 18:44 Cloudy with Nearby Thunderstorms 70 21.1 61 16.1 73 73 NE 16 26 29.72 1006 10 16 0.00 0.00
6:52 pm 18:52 Cloudy with Thunderstorms 69 20.6 62 16.7 78 78 ENE 15 24 29.72 1007 10 16 0.00 0.00
6:59 pm 18:59 Cloudy with Strong Thunderstorms 68 20 61 16.1 78 78 VRB 3 6 29.76 1008 1 2 0.00 0.00
7:02 pm 19:02 Cloudy with Strong Thunderstorms 67 19.4 62 16.7 84 84 NW 3 6 29.75 1007 1 2 0.17 4.32
7:18 pm 19:18 Cloudy with Strong Thunderstorms 66 18.9 63 17.2 90 90 NE 7 11 29.75 1007 2 3 0.63 16.00
7:22 pm 19:22 Cloudy with Strong Thunderstorms 66 18.9 63 17.2 90 90 N 5 7 29.75 1007 2 3 0.70 17.78
7:36 pm 19:36 Cloudy with Strong Thunderstorms 65 18.3 63 17.2 93 93 NNW 8 13 29.76 1008 2 2 0.83 21.08
7:49 pm 19:49 Cloudy with Light Rain 64 18 63 17 94 94 N 12 19 29.75 1007 3 5 0.95 24.13
7:52 pm 19:52 Cloudy with Light Rain 65 18.3 63 17.2 93 93 N 12 19 29.76 1008 4 6 0.95 24.13
8:00 pm 20:00 Cloudy with Heavy Rain 65 18.3 62 16.7 90 90 N 12 19 29.75 1007 2 3 0.04 1.02
8:09 pm 20:09 Cloudy with Light Rain 65 18.3 62 16.7 90 90 NNE 12 19 29.75 1007 3 5 0.10 2.54
8:24 pm 20:24 Cloudy with Light Rain 65 18.3 62 16.7 90 90 NNE 12 19 29.75 1007 10 16 0.11 2.79
8:39 pm 20:39 Cloudy 65 18.3 62 16.7 90 90 NNE 12 19 29.74 1007 10 16 0.11 2.79
8:52 pm 20:52 Cloudy 65 18.3 62 16.7 90 90 NNE 12 19 29.74 1007 10 16 0.11 2.79
9:00 pm 21:00 Cloudy 65 18.3 62 16.7 90 90 NNE 10 17 29.75 1007 10 16 N/A
9:30 pm 21:30 Cloudy with Light Rain 65 18.3 61 16.1 87 87 NNE 10 17 29.75 1007 10 16 0.00 0.00
9:52 pm 21:52 Cloudy with Light Rain 65 18.3 61 16.1 87 87 NNE 10 17 29.75 1008 10 16 0.00 0.00
10:12 pm 22:12 Cloudy with Rain 64 17.8 60 15.6 87 87 NNE 16 26 29.76 1008 4 6 0.03 0.76
10:29 pm 22:29 Cloudy with Light Rain 63 17.2 60 15.6 90 90 NNE 14 22 29.76 1008 8 13 0.07 1.78
10:52 pm 22:52 Cloudy with Light Rain 62 16.7 59 15 90 90 NE 13 20 29.74 1007 8 13 0.09 2.29
11:16 pm 23:16 Cloudy 61 16.1 57 13.9 87 87 NNE 13 20 29.76 1008 10 16 0.01 0.25
11:35 pm 23:35 Cloudy 61 16.1 57 13.9 87 87 NNE 13 20 29.77 1008 10 16 0.01 0.25
11:52 pm 23:52 Cloudy 61 16.1 56 13.3 84 84 NE 14 22 29.78 1008 10 16 0.01 0.25

Powered by AerisWeather